locationName,lineName,date,time,countIn,countOut
�n����ʂ�,3_1_1,2022/9/1,0:00,1,5
�n����ʂ�,3_1_1,2022/9/1,1:00,1,2
�n����ʂ�,3_1_1,2022/9/1,2:00,1,2
�n����ʂ�,3_1_1,2022/9/1,3:00,1,4
�n����ʂ�,3_1_1,2022/9/1,4:00,2,4
�n����ʂ�,3_1_1,2022/9/1,5:00,18,13
�n����ʂ�,3_1_1,2022/9/1,6:00,34,60
�n����ʂ�,3_1_1,2022/9/1,7:00,58,224
�n����ʂ�,3_1_1,2022/9/1,8:00,100,286
�n����ʂ�,3_1_1,2022/9/1,9:00,134,104
�n����ʂ�,3_1_1,2022/9/1,10:00,125,98
�n����ʂ�,3_1_1,2022/9/1,11:00,111,116
�n����ʂ�,3_1_1,2022/9/1,12:00,161,141
�n����ʂ�,3_1_1,2022/9/1,13:00,142,139
�n����ʂ�,3_1_1,2022/9/1,14:00,148,122
�n����ʂ�,3_1_1,2022/9/1,15:00,117,97
�n����ʂ�,3_1_1,2022/9/1,16:00,173,93
�n����ʂ�,3_1_1,2022/9/1,17:00,213,106
�n����ʂ�,3_1_1,2022/9/1,18:00,215,84
�n����ʂ�,3_1_1,2022/9/1,19:00,49,53
�n����ʂ�,3_1_1,2022/9/1,20:00,46,42
�n����ʂ�,3_1_1,2022/9/1,21:00,36,19
�n����ʂ�,3_1_1,2022/9/1,22:00,11,6
�n����ʂ�,3_1_1,2022/9/1,23:00,2,9
�n����ʂ�,3_1_1,2022/9/2,0:00,0,3
�n����ʂ�,3_1_1,2022/9/2,1:00,2,0
�n����ʂ�,3_1_1,2022/9/2,2:00,0,3
�n����ʂ�,3_1_1,2022/9/2,3:00,1,5
�n����ʂ�,3_1_1,2022/9/2,4:00,6,6
�n����ʂ�,3_1_1,2022/9/2,5:00,15,23
�n����ʂ�,3_1_1,2022/9/2,6:00,35,76
�n����ʂ�,3_1_1,2022/9/2,7:00,58,263
�n����ʂ�,3_1_1,2022/9/2,8:00,110,307
�n����ʂ�,3_1_1,2022/9/2,9:00,143,112
�n����ʂ�,3_1_1,2022/9/2,10:00,144,179
�n����ʂ�,3_1_1,2022/9/2,11:00,178,148
�n����ʂ�,3_1_1,2022/9/2,12:00,214,210
�n����ʂ�,3_1_1,2022/9/2,13:00,188,176
�n����ʂ�,3_1_1,2022/9/2,14:00,182,146
�n����ʂ�,3_1_1,2022/9/2,15:00,233,143
�n����ʂ�,3_1_1,2022/9/2,16:00,285,133
�n����ʂ�,3_1_1,2022/9/2,17:00,249,133
�n����ʂ�,3_1_1,2022/9/2,18:00,266,105
�n����ʂ�,3_1_1,2022/9/2,19:00,65,67
�n����ʂ�,3_1_1,2022/9/2,20:00,62,75
�n����ʂ�,3_1_1,2022/9/2,21:00,61,35
�n����ʂ�,3_1_1,2022/9/2,22:00,14,12
�n����ʂ�,3_1_1,2022/9/2,23:00,7,8
�n����ʂ�,3_1_1,2022/9/3,0:00,7,5
�n����ʂ�,3_1_1,2022/9/3,1:00,0,0
�n����ʂ�,3_1_1,2022/9/3,2:00,4,1
�n����ʂ�,3_1_1,2022/9/3,3:00,3,9
�n����ʂ�,3_1_1,2022/9/3,4:00,3,5
�n����ʂ�,3_1_1,2022/9/3,5:00,17,19
�n����ʂ�,3_1_1,2022/9/3,6:00,28,37
�n����ʂ�,3_1_1,2022/9/3,7:00,55,67
�n����ʂ�,3_1_1,2022/9/3,8:00,83,120
�n����ʂ�,3_1_1,2022/9/3,9:00,107,110
�n����ʂ�,3_1_1,2022/9/3,10:00,174,204
�n����ʂ�,3_1_1,2022/9/3,11:00,233,251
�n����ʂ�,3_1_1,2022/9/3,12:00,297,283
�n����ʂ�,3_1_1,2022/9/3,13:00,274,280
�n����ʂ�,3_1_1,2022/9/3,14:00,304,266
�n����ʂ�,3_1_1,2022/9/3,15:00,262,289
�n����ʂ�,3_1_1,2022/9/3,16:00,235,218
�n����ʂ�,3_1_1,2022/9/3,17:00,211,166
�n����ʂ�,3_1_1,2022/9/3,18:00,137,116
�n����ʂ�,3_1_1,2022/9/3,19:00,101,70
�n����ʂ�,3_1_1,2022/9/3,20:00,91,78
�n����ʂ�,3_1_1,2022/9/3,21:00,65,43
�n����ʂ�,3_1_1,2022/9/3,22:00,11,17
�n����ʂ�,3_1_1,2022/9/3,23:00,5,8
�n����ʂ�,3_1_1,2022/9/4,0:00,6,1
�n����ʂ�,3_1_1,2022/9/4,1:00,2,1
�n����ʂ�,3_1_1,2022/9/4,2:00,2,4
�n����ʂ�,3_1_1,2022/9/4,3:00,3,5
�n����ʂ�,3_1_1,2022/9/4,4:00,6,5
�n����ʂ�,3_1_1,2022/9/4,5:00,15,10
�n����ʂ�,3_1_1,2022/9/4,6:00,31,33
�n����ʂ�,3_1_1,2022/9/4,7:00,45,58
�n����ʂ�,3_1_1,2022/9/4,8:00,88,82
�n����ʂ�,3_1_1,2022/9/4,9:00,106,148
�n����ʂ�,3_1_1,2022/9/4,10:00,196,236
�n����ʂ�,3_1_1,2022/9/4,11:00,283,247
�n����ʂ�,3_1_1,2022/9/4,12:00,204,316
�n����ʂ�,3_1_1,2022/9/4,13:00,306,266
�n����ʂ�,3_1_1,2022/9/4,14:00,377,275
�n����ʂ�,3_1_1,2022/9/4,15:00,308,256
�n����ʂ�,3_1_1,2022/9/4,16:00,242,187
�n����ʂ�,3_1_1,2022/9/4,17:00,193,151
�n����ʂ�,3_1_1,2022/9/4,18:00,94,99
�n����ʂ�,3_1_1,2022/9/4,19:00,84,67
�n����ʂ�,3_1_1,2022/9/4,20:00,58,48
�n����ʂ�,3_1_1,2022/9/4,21:00,19,16
�n����ʂ�,3_1_1,2022/9/4,22:00,6,7
�n����ʂ�,3_1_1,2022/9/4,23:00,1,0
�n����ʂ�,3_1_1,2022/9/5,0:00,1,4
�n����ʂ�,3_1_1,2022/9/5,1:00,2,0
�n����ʂ�,3_1_1,2022/9/5,2:00,3,2
�n����ʂ�,3_1_1,2022/9/5,3:00,2,6
�n����ʂ�,3_1_1,2022/9/5,4:00,2,5
�n����ʂ�,3_1_1,2022/9/5,5:00,20,14
�n����ʂ�,3_1_1,2022/9/5,6:00,36,64
�n����ʂ�,3_1_1,2022/9/5,7:00,62,422
�n����ʂ�,3_1_1,2022/9/5,8:00,118,430
�n����ʂ�,3_1_1,2022/9/5,9:00,178,128
�n����ʂ�,3_1_1,2022/9/5,10:00,168,206
�n����ʂ�,3_1_1,2022/9/5,11:00,229,179
�n����ʂ�,3_1_1,2022/9/5,12:00,210,242
�n����ʂ�,3_1_1,2022/9/5,13:00,160,142
�n����ʂ�,3_1_1,2022/9/5,14:00,224,147
�n����ʂ�,3_1_1,2022/9/5,15:00,198,118
�n����ʂ�,3_1_1,2022/9/5,16:00,282,135
�n����ʂ�,3_1_1,2022/9/5,17:00,332,126
�n����ʂ�,3_1_1,2022/9/5,18:00,288,113
�n����ʂ�,3_1_1,2022/9/5,19:00,78,84
�n����ʂ�,3_1_1,2022/9/5,20:00,69,68
�n����ʂ�,3_1_1,2022/9/5,21:00,50,33
�n����ʂ�,3_1_1,2022/9/5,22:00,29,13
�n����ʂ�,3_1_1,2022/9/5,23:00,15,6
�n����ʂ�,3_1_1,2022/9/6,0:00,1,2
�n����ʂ�,3_1_1,2022/9/6,1:00,4,0
�n����ʂ�,3_1_1,2022/9/6,2:00,1,5
�n����ʂ�,3_1_1,2022/9/6,3:00,1,7
�n����ʂ�,3_1_1,2022/9/6,4:00,5,4
�n����ʂ�,3_1_1,2022/9/6,5:00,11,18
�n����ʂ�,3_1_1,2022/9/6,6:00,23,48
�n����ʂ�,3_1_1,2022/9/6,7:00,42,161
�n����ʂ�,3_1_1,2022/9/6,8:00,62,175
�n����ʂ�,3_1_1,2022/9/6,9:00,137,96
�n����ʂ�,3_1_1,2022/9/6,10:00,126,121
�n����ʂ�,3_1_1,2022/9/6,11:00,153,133
�n����ʂ�,3_1_1,2022/9/6,12:00,160,192
�n����ʂ�,3_1_1,2022/9/6,13:00,166,147
�n����ʂ�,3_1_1,2022/9/6,14:00,164,112
�n����ʂ�,3_1_1,2022/9/6,15:00,169,119
�n����ʂ�,3_1_1,2022/9/6,16:00,183,89
�n����ʂ�,3_1_1,2022/9/6,17:00,171,89
�n����ʂ�,3_1_1,2022/9/6,18:00,211,93
�n����ʂ�,3_1_1,2022/9/6,19:00,58,80
�n����ʂ�,3_1_1,2022/9/6,20:00,59,45
�n����ʂ�,3_1_1,2022/9/6,21:00,74,47
�n����ʂ�,3_1_1,2022/9/6,22:00,18,15
�n����ʂ�,3_1_1,2022/9/6,23:00,7,3
�n����ʂ�,3_1_1,2022/9/7,0:00,3,1
�n����ʂ�,3_1_1,2022/9/7,1:00,2,2
�n����ʂ�,3_1_1,2022/9/7,2:00,3,2
�n����ʂ�,3_1_1,2022/9/7,3:00,0,6
�n����ʂ�,3_1_1,2022/9/7,4:00,3,4
�n����ʂ�,3_1_1,2022/9/7,5:00,17,10
�n����ʂ�,3_1_1,2022/9/7,6:00,33,81
�n����ʂ�,3_1_1,2022/9/7,7:00,79,399
�n����ʂ�,3_1_1,2022/9/7,8:00,105,404
�n����ʂ�,3_1_1,2022/9/7,9:00,145,111
�n����ʂ�,3_1_1,2022/9/7,10:00,175,158
�n����ʂ�,3_1_1,2022/9/7,11:00,166,174
�n����ʂ�,3_1_1,2022/9/7,12:00,205,228
�n����ʂ�,3_1_1,2022/9/7,13:00,167,163
�n����ʂ�,3_1_1,2022/9/7,14:00,216,158
�n����ʂ�,3_1_1,2022/9/7,15:00,251,134
�n����ʂ�,3_1_1,2022/9/7,16:00,374,112
�n����ʂ�,3_1_1,2022/9/7,17:00,270,111
�n����ʂ�,3_1_1,2022/9/7,18:00,152,131
�n����ʂ�,3_1_1,2022/9/7,19:00,91,65
�n����ʂ�,3_1_1,2022/9/7,20:00,76,57
�n����ʂ�,3_1_1,2022/9/7,21:00,60,41
�n����ʂ�,3_1_1,2022/9/7,22:00,6,9
�n����ʂ�,3_1_1,2022/9/7,23:00,5,3
�n����ʂ�,3_1_1,2022/9/8,0:00,3,6
�n����ʂ�,3_1_1,2022/9/8,1:00,1,1
�n����ʂ�,3_1_1,2022/9/8,2:00,2,4
�n����ʂ�,3_1_1,2022/9/8,3:00,1,6
�n����ʂ�,3_1_1,2022/9/8,4:00,5,7
�n����ʂ�,3_1_1,2022/9/8,5:00,15,20
�n����ʂ�,3_1_1,2022/9/8,6:00,43,96
�n����ʂ�,3_1_1,2022/9/8,7:00,82,356
�n����ʂ�,3_1_1,2022/9/8,8:00,134,418
�n����ʂ�,3_1_1,2022/9/8,9:00,163,148
�n����ʂ�,3_1_1,2022/9/8,10:00,148,127
�n����ʂ�,3_1_1,2022/9/8,11:00,176,198
�n����ʂ�,3_1_1,2022/9/8,12:00,168,189
�n����ʂ�,3_1_1,2022/9/8,13:00,235,197
�n����ʂ�,3_1_1,2022/9/8,14:00,190,204
�n����ʂ�,3_1_1,2022/9/8,15:00,186,152
�n����ʂ�,3_1_1,2022/9/8,16:00,257,115
�n����ʂ�,3_1_1,2022/9/8,17:00,274,115
�n����ʂ�,3_1_1,2022/9/8,18:00,277,116
�n����ʂ�,3_1_1,2022/9/8,19:00,76,82
�n����ʂ�,3_1_1,2022/9/8,20:00,88,39
�n����ʂ�,3_1_1,2022/9/8,21:00,74,31
�n����ʂ�,3_1_1,2022/9/8,22:00,15,14
�n����ʂ�,3_1_1,2022/9/8,23:00,16,4
�n����ʂ�,3_1_1,2022/9/9,0:00,5,11
�n����ʂ�,3_1_1,2022/9/9,1:00,1,0
�n����ʂ�,3_1_1,2022/9/9,2:00,2,5
�n����ʂ�,3_1_1,2022/9/9,3:00,1,9
�n����ʂ�,3_1_1,2022/9/9,4:00,4,7
�n����ʂ�,3_1_1,2022/9/9,5:00,16,13
�n����ʂ�,3_1_1,2022/9/9,6:00,37,70
�n����ʂ�,3_1_1,2022/9/9,7:00,33,137
�n����ʂ�,3_1_1,2022/9/9,8:00,0,0
�n����ʂ�,3_1_1,2022/9/9,9:00,0,0
�n����ʂ�,3_1_1,2022/9/9,10:00,0,0
�n����ʂ�,3_1_1,2022/9/9,11:00,0,0
�n����ʂ�,3_1_1,2022/9/9,12:00,0,0
�n����ʂ�,3_1_1,2022/9/9,13:00,0,0
�n����ʂ�,3_1_1,2022/9/9,14:00,0,0
�n����ʂ�,3_1_1,2022/9/9,15:00,0,0
�n����ʂ�,3_1_1,2022/9/9,16:00,0,0
�n����ʂ�,3_1_1,2022/9/9,17:00,0,0
�n����ʂ�,3_1_1,2022/9/9,18:00,0,0
�n����ʂ�,3_1_1,2022/9/9,19:00,0,0
�n����ʂ�,3_1_1,2022/9/9,20:00,0,0
�n����ʂ�,3_1_1,2022/9/9,21:00,0,0
�n����ʂ�,3_1_1,2022/9/9,22:00,0,0
�n����ʂ�,3_1_1,2022/9/9,23:00,0,0
�n����ʂ�,3_1_1,2022/9/10,0:00,0,0
�n����ʂ�,3_1_1,2022/9/10,1:00,0,0
�n����ʂ�,3_1_1,2022/9/10,2:00,0,0
�n����ʂ�,3_1_1,2022/9/10,3:00,0,0
�n����ʂ�,3_1_1,2022/9/10,4:00,0,0
�n����ʂ�,3_1_1,2022/9/10,5:00,0,0
�n����ʂ�,3_1_1,2022/9/10,6:00,0,0
�n����ʂ�,3_1_1,2022/9/10,7:00,0,0
�n����ʂ�,3_1_1,2022/9/10,8:00,0,0
�n����ʂ�,3_1_1,2022/9/10,9:00,0,0
�n����ʂ�,3_1_1,2022/9/10,10:00,0,0
�n����ʂ�,3_1_1,2022/9/10,11:00,0,0
�n����ʂ�,3_1_1,2022/9/10,12:00,0,0
�n����ʂ�,3_1_1,2022/9/10,13:00,0,0
�n����ʂ�,3_1_1,2022/9/10,14:00,0,0
�n����ʂ�,3_1_1,2022/9/10,15:00,0,0
�n����ʂ�,3_1_1,2022/9/10,16:00,0,0
�n����ʂ�,3_1_1,2022/9/10,17:00,0,0
�n����ʂ�,3_1_1,2022/9/10,18:00,0,0
�n����ʂ�,3_1_1,2022/9/10,19:00,0,0
�n����ʂ�,3_1_1,2022/9/10,20:00,0,0
�n����ʂ�,3_1_1,2022/9/10,21:00,0,0
�n����ʂ�,3_1_1,2022/9/10,22:00,0,0
�n����ʂ�,3_1_1,2022/9/10,23:00,0,0
�n����ʂ�,3_1_1,2022/9/11,0:00,0,0
�n����ʂ�,3_1_1,2022/9/11,1:00,0,0
�n����ʂ�,3_1_1,2022/9/11,2:00,0,0
�n����ʂ�,3_1_1,2022/9/11,3:00,0,0
�n����ʂ�,3_1_1,2022/9/11,4:00,0,0
�n����ʂ�,3_1_1,2022/9/11,5:00,0,0
�n����ʂ�,3_1_1,2022/9/11,6:00,0,0
�n����ʂ�,3_1_1,2022/9/11,7:00,0,0
�n����ʂ�,3_1_1,2022/9/11,8:00,0,0
�n����ʂ�,3_1_1,2022/9/11,9:00,0,0
�n����ʂ�,3_1_1,2022/9/11,10:00,0,0
�n����ʂ�,3_1_1,2022/9/11,11:00,0,0
�n����ʂ�,3_1_1,2022/9/11,12:00,0,0
�n����ʂ�,3_1_1,2022/9/11,13:00,0,0
�n����ʂ�,3_1_1,2022/9/11,14:00,0,0
�n����ʂ�,3_1_1,2022/9/11,15:00,0,0
�n����ʂ�,3_1_1,2022/9/11,16:00,0,0
�n����ʂ�,3_1_1,2022/9/11,17:00,0,0
�n����ʂ�,3_1_1,2022/9/11,18:00,0,0
�n����ʂ�,3_1_1,2022/9/11,19:00,0,0
�n����ʂ�,3_1_1,2022/9/11,20:00,0,0
�n����ʂ�,3_1_1,2022/9/11,21:00,0,0
�n����ʂ�,3_1_1,2022/9/11,22:00,0,0
�n����ʂ�,3_1_1,2022/9/11,23:00,0,0
�n����ʂ�,3_1_1,2022/9/12,0:00,0,0
�n����ʂ�,3_1_1,2022/9/12,1:00,0,0
�n����ʂ�,3_1_1,2022/9/12,2:00,0,0
�n����ʂ�,3_1_1,2022/9/12,3:00,0,0
�n����ʂ�,3_1_1,2022/9/12,4:00,0,0
�n����ʂ�,3_1_1,2022/9/12,5:00,0,0
�n����ʂ�,3_1_1,2022/9/12,6:00,0,0
�n����ʂ�,3_1_1,2022/9/12,7:00,0,0
�n����ʂ�,3_1_1,2022/9/12,8:00,0,0
�n����ʂ�,3_1_1,2022/9/12,9:00,0,0
�n����ʂ�,3_1_1,2022/9/12,10:00,0,0
�n����ʂ�,3_1_1,2022/9/12,11:00,0,0
�n����ʂ�,3_1_1,2022/9/12,12:00,247,215
�n����ʂ�,3_1_1,2022/9/12,13:00,180,206
�n����ʂ�,3_1_1,2022/9/12,14:00,204,183
�n����ʂ�,3_1_1,2022/9/12,15:00,297,158
�n����ʂ�,3_1_1,2022/9/12,16:00,335,104
�n����ʂ�,3_1_1,2022/9/12,17:00,263,120
�n����ʂ�,3_1_1,2022/9/12,18:00,225,133
�n����ʂ�,3_1_1,2022/9/12,19:00,86,72
�n����ʂ�,3_1_1,2022/9/12,20:00,59,74
�n����ʂ�,3_1_1,2022/9/12,21:00,64,24
�n����ʂ�,3_1_1,2022/9/12,22:00,6,12
�n����ʂ�,3_1_1,2022/9/12,23:00,6,6
�n����ʂ�,3_1_1,2022/9/13,0:00,1,7
�n����ʂ�,3_1_1,2022/9/13,1:00,4,0
�n����ʂ�,3_1_1,2022/9/13,2:00,4,2
�n����ʂ�,3_1_1,2022/9/13,3:00,1,9
�n����ʂ�,3_1_1,2022/9/13,4:00,6,4
�n����ʂ�,3_1_1,2022/9/13,5:00,13,20
�n����ʂ�,3_1_1,2022/9/13,6:00,33,43
�n����ʂ�,3_1_1,2022/9/13,7:00,83,387
�n����ʂ�,3_1_1,2022/9/13,8:00,113,444
�n����ʂ�,3_1_1,2022/9/13,9:00,125,137
�n����ʂ�,3_1_1,2022/9/13,10:00,152,164
�n����ʂ�,3_1_1,2022/9/13,11:00,179,181
�n����ʂ�,3_1_1,2022/9/13,12:00,215,225
�n����ʂ�,3_1_1,2022/9/13,13:00,198,143
�n����ʂ�,3_1_1,2022/9/13,14:00,170,182
�n����ʂ�,3_1_1,2022/9/13,15:00,192,139
�n����ʂ�,3_1_1,2022/9/13,16:00,334,137
�n����ʂ�,3_1_1,2022/9/13,17:00,320,138
�n����ʂ�,3_1_1,2022/9/13,18:00,238,111
�n����ʂ�,3_1_1,2022/9/13,19:00,83,90
�n����ʂ�,3_1_1,2022/9/13,20:00,65,53
�n����ʂ�,3_1_1,2022/9/13,21:00,67,42
�n����ʂ�,3_1_1,2022/9/13,22:00,19,30
�n����ʂ�,3_1_1,2022/9/13,23:00,5,6
�n����ʂ�,3_1_1,2022/9/14,0:00,2,4
�n����ʂ�,3_1_1,2022/9/14,1:00,3,2
�n����ʂ�,3_1_1,2022/9/14,2:00,1,2
�n����ʂ�,3_1_1,2022/9/14,3:00,1,9
�n����ʂ�,3_1_1,2022/9/14,4:00,3,4
�n����ʂ�,3_1_1,2022/9/14,5:00,13,16
�n����ʂ�,3_1_1,2022/9/14,6:00,39,124
�n����ʂ�,3_1_1,2022/9/14,7:00,83,349
�n����ʂ�,3_1_1,2022/9/14,8:00,114,419
�n����ʂ�,3_1_1,2022/9/14,9:00,123,151
�n����ʂ�,3_1_1,2022/9/14,10:00,146,166
�n����ʂ�,3_1_1,2022/9/14,11:00,170,230
�n����ʂ�,3_1_1,2022/9/14,12:00,210,193
�n����ʂ�,3_1_1,2022/9/14,13:00,187,150
�n����ʂ�,3_1_1,2022/9/14,14:00,182,150
�n����ʂ�,3_1_1,2022/9/14,15:00,262,139
�n����ʂ�,3_1_1,2022/9/14,16:00,441,146
�n����ʂ�,3_1_1,2022/9/14,17:00,294,135
�n����ʂ�,3_1_1,2022/9/14,18:00,179,152
�n����ʂ�,3_1_1,2022/9/14,19:00,84,79
�n����ʂ�,3_1_1,2022/9/14,20:00,66,55
�n����ʂ�,3_1_1,2022/9/14,21:00,54,28
�n����ʂ�,3_1_1,2022/9/14,22:00,10,10
�n����ʂ�,3_1_1,2022/9/14,23:00,7,8
�n����ʂ�,3_1_1,2022/9/15,0:00,3,5
�n����ʂ�,3_1_1,2022/9/15,1:00,1,1
�n����ʂ�,3_1_1,2022/9/15,2:00,3,1
�n����ʂ�,3_1_1,2022/9/15,3:00,4,11
�n����ʂ�,3_1_1,2022/9/15,4:00,3,7
�n����ʂ�,3_1_1,2022/9/15,5:00,23,19
�n����ʂ�,3_1_1,2022/9/15,6:00,33,57
�n����ʂ�,3_1_1,2022/9/15,7:00,70,489
�n����ʂ�,3_1_1,2022/9/15,8:00,118,363
�n����ʂ�,3_1_1,2022/9/15,9:00,145,128
�n����ʂ�,3_1_1,2022/9/15,10:00,165,179
�n����ʂ�,3_1_1,2022/9/15,11:00,162,206
�n����ʂ�,3_1_1,2022/9/15,12:00,194,195
�n����ʂ�,3_1_1,2022/9/15,13:00,207,175
�n����ʂ�,3_1_1,2022/9/15,14:00,212,163
�n����ʂ�,3_1_1,2022/9/15,15:00,283,127
�n����ʂ�,3_1_1,2022/9/15,16:00,366,124
�n����ʂ�,3_1_1,2022/9/15,17:00,277,146
�n����ʂ�,3_1_1,2022/9/15,18:00,197,116
�n����ʂ�,3_1_1,2022/9/15,19:00,69,90
�n����ʂ�,3_1_1,2022/9/15,20:00,64,64
�n����ʂ�,3_1_1,2022/9/15,21:00,47,26
�n����ʂ�,3_1_1,2022/9/15,22:00,20,13
�n����ʂ�,3_1_1,2022/9/15,23:00,4,3
�n����ʂ�,3_1_1,2022/9/16,0:00,2,4
�n����ʂ�,3_1_1,2022/9/16,1:00,5,1
�n����ʂ�,3_1_1,2022/9/16,2:00,1,2
�n����ʂ�,3_1_1,2022/9/16,3:00,1,10
�n����ʂ�,3_1_1,2022/9/16,4:00,3,7
�n����ʂ�,3_1_1,2022/9/16,5:00,15,12
�n����ʂ�,3_1_1,2022/9/16,6:00,38,46
�n����ʂ�,3_1_1,2022/9/16,7:00,65,336
�n����ʂ�,3_1_1,2022/9/16,8:00,116,367
�n����ʂ�,3_1_1,2022/9/16,9:00,167,151
�n����ʂ�,3_1_1,2022/9/16,10:00,209,188
�n����ʂ�,3_1_1,2022/9/16,11:00,186,197
�n����ʂ�,3_1_1,2022/9/16,12:00,218,201
�n����ʂ�,3_1_1,2022/9/16,13:00,176,196
�n����ʂ�,3_1_1,2022/9/16,14:00,249,186
�n����ʂ�,3_1_1,2022/9/16,15:00,276,132
�n����ʂ�,3_1_1,2022/9/16,16:00,296,189
�n����ʂ�,3_1_1,2022/9/16,17:00,309,147
�n����ʂ�,3_1_1,2022/9/16,18:00,269,141
�n����ʂ�,3_1_1,2022/9/16,19:00,97,93
�n����ʂ�,3_1_1,2022/9/16,20:00,76,87
�n����ʂ�,3_1_1,2022/9/16,21:00,64,71
�n����ʂ�,3_1_1,2022/9/16,22:00,19,22
�n����ʂ�,3_1_1,2022/9/16,23:00,15,14
�n����ʂ�,3_1_1,2022/9/17,0:00,11,6
�n����ʂ�,3_1_1,2022/9/17,1:00,7,1
�n����ʂ�,3_1_1,2022/9/17,2:00,2,2
�n����ʂ�,3_1_1,2022/9/17,3:00,2,7
�n����ʂ�,3_1_1,2022/9/17,4:00,3,7
�n����ʂ�,3_1_1,2022/9/17,5:00,13,17
�n����ʂ�,3_1_1,2022/9/17,6:00,28,46
�n����ʂ�,3_1_1,2022/9/17,7:00,61,93
�n����ʂ�,3_1_1,2022/9/17,8:00,108,125
�n����ʂ�,3_1_1,2022/9/17,9:00,116,190
�n����ʂ�,3_1_1,2022/9/17,10:00,200,291
�n����ʂ�,3_1_1,2022/9/17,11:00,302,324
�n����ʂ�,3_1_1,2022/9/17,12:00,344,398
�n����ʂ�,3_1_1,2022/9/17,13:00,357,400
�n����ʂ�,3_1_1,2022/9/17,14:00,396,367
�n����ʂ�,3_1_1,2022/9/17,15:00,349,323
�n����ʂ�,3_1_1,2022/9/17,16:00,325,248
�n����ʂ�,3_1_1,2022/9/17,17:00,302,212
�n����ʂ�,3_1_1,2022/9/17,18:00,170,209
�n����ʂ�,3_1_1,2022/9/17,19:00,80,114
�n����ʂ�,3_1_1,2022/9/17,20:00,89,69
�n����ʂ�,3_1_1,2022/9/17,21:00,73,65
�n����ʂ�,3_1_1,2022/9/17,22:00,34,22
�n����ʂ�,3_1_1,2022/9/17,23:00,17,9
�n����ʂ�,3_1_1,2022/9/18,0:00,8,2
�n����ʂ�,3_1_1,2022/9/18,1:00,5,3
�n����ʂ�,3_1_1,2022/9/18,2:00,5,3
�n����ʂ�,3_1_1,2022/9/18,3:00,5,8
�n����ʂ�,3_1_1,2022/9/18,4:00,5,3
�n����ʂ�,3_1_1,2022/9/18,5:00,11,17
�n����ʂ�,3_1_1,2022/9/18,6:00,21,24
�n����ʂ�,3_1_1,2022/9/18,7:00,46,47
�n����ʂ�,3_1_1,2022/9/18,8:00,72,86
�n����ʂ�,3_1_1,2022/9/18,9:00,128,112
�n����ʂ�,3_1_1,2022/9/18,10:00,183,252
�n����ʂ�,3_1_1,2022/9/18,11:00,291,309
�n����ʂ�,3_1_1,2022/9/18,12:00,333,289
�n����ʂ�,3_1_1,2022/9/18,13:00,358,350
�n����ʂ�,3_1_1,2022/9/18,14:00,277,276
�n����ʂ�,3_1_1,2022/9/18,15:00,224,226
�n����ʂ�,3_1_1,2022/9/18,16:00,173,129
�n����ʂ�,3_1_1,2022/9/18,17:00,83,86
�n����ʂ�,3_1_1,2022/9/18,18:00,48,40
�n����ʂ�,3_1_1,2022/9/18,19:00,23,27
�n����ʂ�,3_1_1,2022/9/18,20:00,27,28
�n����ʂ�,3_1_1,2022/9/18,21:00,0,5
�n����ʂ�,3_1_1,2022/9/18,22:00,3,12
�n����ʂ�,3_1_1,2022/9/18,23:00,0,2
�n����ʂ�,3_1_1,2022/9/19,0:00,5,0
�n����ʂ�,3_1_1,2022/9/19,1:00,1,2
�n����ʂ�,3_1_1,2022/9/19,2:00,2,4
�n����ʂ�,3_1_1,2022/9/19,3:00,2,5
�n����ʂ�,3_1_1,2022/9/19,4:00,1,2
�n����ʂ�,3_1_1,2022/9/19,5:00,8,13
�n����ʂ�,3_1_1,2022/9/19,6:00,17,12
�n����ʂ�,3_1_1,2022/9/19,7:00,21,24
�n����ʂ�,3_1_1,2022/9/19,8:00,27,24
�n����ʂ�,3_1_1,2022/9/19,9:00,35,33
�n����ʂ�,3_1_1,2022/9/19,10:00,42,65
�n����ʂ�,3_1_1,2022/9/19,11:00,25,18
�n����ʂ�,3_1_1,2022/9/19,12:00,37,29
�n����ʂ�,3_1_1,2022/9/19,13:00,30,23
�n����ʂ�,3_1_1,2022/9/19,14:00,33,23
�n����ʂ�,3_1_1,2022/9/19,15:00,41,23
�n����ʂ�,3_1_1,2022/9/19,16:00,23,34
�n����ʂ�,3_1_1,2022/9/19,17:00,50,37
�n����ʂ�,3_1_1,2022/9/19,18:00,36,32
�n����ʂ�,3_1_1,2022/9/19,19:00,12,15
�n����ʂ�,3_1_1,2022/9/19,20:00,10,10
�n����ʂ�,3_1_1,2022/9/19,21:00,10,2
�n����ʂ�,3_1_1,2022/9/19,22:00,0,3
�n����ʂ�,3_1_1,2022/9/19,23:00,2,4
�n����ʂ�,3_1_1,2022/9/20,0:00,5,1
�n����ʂ�,3_1_1,2022/9/20,1:00,0,1
�n����ʂ�,3_1_1,2022/9/20,2:00,1,4
�n����ʂ�,3_1_1,2022/9/20,3:00,1,3
�n����ʂ�,3_1_1,2022/9/20,4:00,5,7
�n����ʂ�,3_1_1,2022/9/20,5:00,12,8
�n����ʂ�,3_1_1,2022/9/20,6:00,32,49
�n����ʂ�,3_1_1,2022/9/20,7:00,62,278
�n����ʂ�,3_1_1,2022/9/20,8:00,131,421
�n����ʂ�,3_1_1,2022/9/20,9:00,110,127
�n����ʂ�,3_1_1,2022/9/20,10:00,198,171
�n����ʂ�,3_1_1,2022/9/20,11:00,167,198
�n����ʂ�,3_1_1,2022/9/20,12:00,202,178
�n����ʂ�,3_1_1,2022/9/20,13:00,171,147
�n����ʂ�,3_1_1,2022/9/20,14:00,189,175
�n����ʂ�,3_1_1,2022/9/20,15:00,176,142
�n����ʂ�,3_1_1,2022/9/20,16:00,327,157
�n����ʂ�,3_1_1,2022/9/20,17:00,342,158
�n����ʂ�,3_1_1,2022/9/20,18:00,232,142
�n����ʂ�,3_1_1,2022/9/20,19:00,80,102
�n����ʂ�,3_1_1,2022/9/20,20:00,57,61
�n����ʂ�,3_1_1,2022/9/20,21:00,77,48
�n����ʂ�,3_1_1,2022/9/20,22:00,17,14
�n����ʂ�,3_1_1,2022/9/20,23:00,13,4
�n����ʂ�,3_1_1,2022/9/21,0:00,6,3
�n����ʂ�,3_1_1,2022/9/21,1:00,3,1
�n����ʂ�,3_1_1,2022/9/21,2:00,0,2
�n����ʂ�,3_1_1,2022/9/21,3:00,1,5
�n����ʂ�,3_1_1,2022/9/21,4:00,3,6
�n����ʂ�,3_1_1,2022/9/21,5:00,19,20
�n����ʂ�,3_1_1,2022/9/21,6:00,43,49
�n����ʂ�,3_1_1,2022/9/21,7:00,67,376
�n����ʂ�,3_1_1,2022/9/21,8:00,112,333
�n����ʂ�,3_1_1,2022/9/21,9:00,117,115
�n����ʂ�,3_1_1,2022/9/21,10:00,180,161
�n����ʂ�,3_1_1,2022/9/21,11:00,200,191
�n����ʂ�,3_1_1,2022/9/21,12:00,165,207
�n����ʂ�,3_1_1,2022/9/21,13:00,187,181
�n����ʂ�,3_1_1,2022/9/21,14:00,191,190
�n����ʂ�,3_1_1,2022/9/21,15:00,262,140
�n����ʂ�,3_1_1,2022/9/21,16:00,499,155
�n����ʂ�,3_1_1,2022/9/21,17:00,269,150
�n����ʂ�,3_1_1,2022/9/21,18:00,143,127
�n����ʂ�,3_1_1,2022/9/21,19:00,108,102
�n����ʂ�,3_1_1,2022/9/21,20:00,79,74
�n����ʂ�,3_1_1,2022/9/21,21:00,59,47
�n����ʂ�,3_1_1,2022/9/21,22:00,20,12
�n����ʂ�,3_1_1,2022/9/21,23:00,4,8
�n����ʂ�,3_1_1,2022/9/22,0:00,7,4
�n����ʂ�,3_1_1,2022/9/22,1:00,1,1
�n����ʂ�,3_1_1,2022/9/22,2:00,4,2
�n����ʂ�,3_1_1,2022/9/22,3:00,1,6
�n����ʂ�,3_1_1,2022/9/22,4:00,5,11
�n����ʂ�,3_1_1,2022/9/22,5:00,15,17
�n����ʂ�,3_1_1,2022/9/22,6:00,31,65
�n����ʂ�,3_1_1,2022/9/22,7:00,82,403
�n����ʂ�,3_1_1,2022/9/22,8:00,131,318
�n����ʂ�,3_1_1,2022/9/22,9:00,161,153
�n����ʂ�,3_1_1,2022/9/22,10:00,210,171
�n����ʂ�,3_1_1,2022/9/22,11:00,195,246
�n����ʂ�,3_1_1,2022/9/22,12:00,232,254
�n����ʂ�,3_1_1,2022/9/22,13:00,200,207
�n����ʂ�,3_1_1,2022/9/22,14:00,253,166
�n����ʂ�,3_1_1,2022/9/22,15:00,179,187
�n����ʂ�,3_1_1,2022/9/22,16:00,349,177
�n����ʂ�,3_1_1,2022/9/22,17:00,382,168
�n����ʂ�,3_1_1,2022/9/22,18:00,196,139
�n����ʂ�,3_1_1,2022/9/22,19:00,92,88
�n����ʂ�,3_1_1,2022/9/22,20:00,63,75
�n����ʂ�,3_1_1,2022/9/22,21:00,74,46
�n����ʂ�,3_1_1,2022/9/22,22:00,41,29
�n����ʂ�,3_1_1,2022/9/22,23:00,1,7
�n����ʂ�,3_1_1,2022/9/23,0:00,7,9
�n����ʂ�,3_1_1,2022/9/23,1:00,9,2
�n����ʂ�,3_1_1,2022/9/23,2:00,3,1
�n����ʂ�,3_1_1,2022/9/23,3:00,2,11
�n����ʂ�,3_1_1,2022/9/23,4:00,4,2
�n����ʂ�,3_1_1,2022/9/23,5:00,9,15
�n����ʂ�,3_1_1,2022/9/23,6:00,33,31
�n����ʂ�,3_1_1,2022/9/23,7:00,51,49
�n����ʂ�,3_1_1,2022/9/23,8:00,64,77
�n����ʂ�,3_1_1,2022/9/23,9:00,135,174
�n����ʂ�,3_1_1,2022/9/23,10:00,201,339
�n����ʂ�,3_1_1,2022/9/23,11:00,292,382
�n����ʂ�,3_1_1,2022/9/23,12:00,383,503
�n����ʂ�,3_1_1,2022/9/23,13:00,398,449
�n����ʂ�,3_1_1,2022/9/23,14:00,554,465
�n����ʂ�,3_1_1,2022/9/23,15:00,425,378
�n����ʂ�,3_1_1,2022/9/23,16:00,450,300
�n����ʂ�,3_1_1,2022/9/23,17:00,325,235
�n����ʂ�,3_1_1,2022/9/23,18:00,165,160
�n����ʂ�,3_1_1,2022/9/23,19:00,127,83
�n����ʂ�,3_1_1,2022/9/23,20:00,50,79
�n����ʂ�,3_1_1,2022/9/23,21:00,84,55
�n����ʂ�,3_1_1,2022/9/23,22:00,22,21
�n����ʂ�,3_1_1,2022/9/23,23:00,13,8
�n����ʂ�,3_1_1,2022/9/24,0:00,3,2
�n����ʂ�,3_1_1,2022/9/24,1:00,3,1
�n����ʂ�,3_1_1,2022/9/24,2:00,4,1
�n����ʂ�,3_1_1,2022/9/24,3:00,2,6
�n����ʂ�,3_1_1,2022/9/24,4:00,4,4
�n����ʂ�,3_1_1,2022/9/24,5:00,10,15
�n����ʂ�,3_1_1,2022/9/24,6:00,43,50
�n����ʂ�,3_1_1,2022/9/24,7:00,43,102
�n����ʂ�,3_1_1,2022/9/24,8:00,114,116
�n����ʂ�,3_1_1,2022/9/24,9:00,131,218
�n����ʂ�,3_1_1,2022/9/24,10:00,285,394
�n����ʂ�,3_1_1,2022/9/24,11:00,355,526
�n����ʂ�,3_1_1,2022/9/24,12:00,463,461
�n����ʂ�,3_1_1,2022/9/24,13:00,478,508
�n����ʂ�,3_1_1,2022/9/24,14:00,504,485
�n����ʂ�,3_1_1,2022/9/24,15:00,501,392
�n����ʂ�,3_1_1,2022/9/24,16:00,451,342
�n����ʂ�,3_1_1,2022/9/24,17:00,363,263
�n����ʂ�,3_1_1,2022/9/24,18:00,242,238
�n����ʂ�,3_1_1,2022/9/24,19:00,133,141
�n����ʂ�,3_1_1,2022/9/24,20:00,89,114
�n����ʂ�,3_1_1,2022/9/24,21:00,94,58
�n����ʂ�,3_1_1,2022/9/24,22:00,49,31
�n����ʂ�,3_1_1,2022/9/24,23:00,21,3
�n����ʂ�,3_1_1,2022/9/25,0:00,6,7
�n����ʂ�,3_1_1,2022/9/25,1:00,4,0
�n����ʂ�,3_1_1,2022/9/25,2:00,0,2
�n����ʂ�,3_1_1,2022/9/25,3:00,1,9
�n����ʂ�,3_1_1,2022/9/25,4:00,4,3
�n����ʂ�,3_1_1,2022/9/25,5:00,14,18
�n����ʂ�,3_1_1,2022/9/25,6:00,22,26
�n����ʂ�,3_1_1,2022/9/25,7:00,53,43
�n����ʂ�,3_1_1,2022/9/25,8:00,107,102
�n����ʂ�,3_1_1,2022/9/25,9:00,110,171
�n����ʂ�,3_1_1,2022/9/25,10:00,214,410
�n����ʂ�,3_1_1,2022/9/25,11:00,657,524
�n����ʂ�,3_1_1,2022/9/25,12:00,484,518
�n����ʂ�,3_1_1,2022/9/25,13:00,459,460
�n����ʂ�,3_1_1,2022/9/25,14:00,457,460
�n����ʂ�,3_1_1,2022/9/25,15:00,471,357
�n����ʂ�,3_1_1,2022/9/25,16:00,382,331
�n����ʂ�,3_1_1,2022/9/25,17:00,248,168
�n����ʂ�,3_1_1,2022/9/25,18:00,137,145
�n����ʂ�,3_1_1,2022/9/25,19:00,59,52
�n����ʂ�,3_1_1,2022/9/25,20:00,60,74
�n����ʂ�,3_1_1,2022/9/25,21:00,38,30
�n����ʂ�,3_1_1,2022/9/25,22:00,20,8
�n����ʂ�,3_1_1,2022/9/25,23:00,4,5
�n����ʂ�,3_1_1,2022/9/26,0:00,3,1
�n����ʂ�,3_1_1,2022/9/26,1:00,1,2
�n����ʂ�,3_1_1,2022/9/26,2:00,1,2
�n����ʂ�,3_1_1,2022/9/26,3:00,2,9
�n����ʂ�,3_1_1,2022/9/26,4:00,5,4
�n����ʂ�,3_1_1,2022/9/26,5:00,9,21
�n����ʂ�,3_1_1,2022/9/26,6:00,47,60
�n����ʂ�,3_1_1,2022/9/26,7:00,80,399
�n����ʂ�,3_1_1,2022/9/26,8:00,147,314
�n����ʂ�,3_1_1,2022/9/26,9:00,196,139
�n����ʂ�,3_1_1,2022/9/26,10:00,193,198
�n����ʂ�,3_1_1,2022/9/26,11:00,256,198
�n����ʂ�,3_1_1,2022/9/26,12:00,316,239
�n����ʂ�,3_1_1,2022/9/26,13:00,240,181
�n����ʂ�,3_1_1,2022/9/26,14:00,247,159
�n����ʂ�,3_1_1,2022/9/26,15:00,247,129
�n����ʂ�,3_1_1,2022/9/26,16:00,187,155
�n����ʂ�,3_1_1,2022/9/26,17:00,270,123
�n����ʂ�,3_1_1,2022/9/26,18:00,206,112
�n����ʂ�,3_1_1,2022/9/26,19:00,83,95
�n����ʂ�,3_1_1,2022/9/26,20:00,58,76
�n����ʂ�,3_1_1,2022/9/26,21:00,68,37
�n����ʂ�,3_1_1,2022/9/26,22:00,23,19
�n����ʂ�,3_1_1,2022/9/26,23:00,1,5
�n����ʂ�,3_1_1,2022/9/27,0:00,4,5
�n����ʂ�,3_1_1,2022/9/27,1:00,5,0
�n����ʂ�,3_1_1,2022/9/27,2:00,1,3
�n����ʂ�,3_1_1,2022/9/27,3:00,0,6
�n����ʂ�,3_1_1,2022/9/27,4:00,3,4
�n����ʂ�,3_1_1,2022/9/27,5:00,10,10
�n����ʂ�,3_1_1,2022/9/27,6:00,35,34
�n����ʂ�,3_1_1,2022/9/27,7:00,62,252
�n����ʂ�,3_1_1,2022/9/27,8:00,93,243
�n����ʂ�,3_1_1,2022/9/27,9:00,106,119
�n����ʂ�,3_1_1,2022/9/27,10:00,116,106
�n����ʂ�,3_1_1,2022/9/27,11:00,151,124
�n����ʂ�,3_1_1,2022/9/27,12:00,220,157
�n����ʂ�,3_1_1,2022/9/27,13:00,160,147
�n����ʂ�,3_1_1,2022/9/27,14:00,184,146
�n����ʂ�,3_1_1,2022/9/27,15:00,154,124
�n����ʂ�,3_1_1,2022/9/27,16:00,223,149